Location: Haliburton Scout Reserve
(45.0900°N, 78.3200°W)
Time: 03:51:10
(UTC-04:00)

SEEDS - Visible Passes

Search period start: 23 September 2023 00:00
Search period end: 03 October 2023 00:00
Orbit: 564 x 582 km, 97.7° (Epoch: 22 September)

Date Brightness Start Highest point End Pass type
(mag) Time Alt. Az. Time Alt. Az. Time Alt. Az.
23 Sep ? 03:58:36 10° ENE 04:00:25 13° E 04:02:12 10° ESE visible
23 Sep ? 05:31:58 10° N 05:35:58 58° WNW 05:38:47 18° SSW visible
24 Sep ? 04:01:09 10° ENE 04:03:14 14° E 04:05:18 10° ESE visible
24 Sep ? 05:34:47 10° N 05:38:45 54° WNW 05:41:30 19° SW visible
25 Sep ? 04:03:45 10° NE 04:06:02 15° E 04:08:02 11° ESE visible
25 Sep ? 05:37:35 10° N 05:41:31 50° WNW 05:44:13 19° SW visible
26 Sep ? 04:06:21 10° NE 04:08:49 16° E 04:10:43 12° ESE visible
26 Sep ? 05:40:22 10° N 05:44:16 46° WNW 05:46:53 19° SW visible
27 Sep ? 04:08:56 10° NE 04:11:36 17° E 04:13:23 13° ESE visible
27 Sep ? 05:43:08 10° N 05:47:00 43° WNW 05:49:33 19° SW visible
28 Sep ? 04:11:33 10° NE 04:14:21 18° E 04:16:01 14° ESE visible
28 Sep ? 05:45:53 10° N 05:49:43 40° WNW 05:52:11 19° SW visible
29 Sep ? 04:14:08 10° NE 04:17:05 19° E 04:18:38 16° ESE visible
29 Sep ? 05:48:37 10° N 05:52:24 38° WNW 05:54:49 19° SW visible
30 Sep ? 04:16:44 10° NE 04:19:48 20° E 04:21:16 17° ESE visible
30 Sep ? 05:51:21 10° N 05:55:04 36° WNW 05:57:25 19° SW visible
01 Oct ? 04:19:19 10° NE 04:22:29 22° E 04:23:50 18° ESE visible
01 Oct ? 05:54:03 10° N 05:57:44 33° WNW 06:00:00 19° WSW visible
02 Oct ? 04:21:53 10° NE 04:25:10 23° E 04:26:24 20° ESE visible
02 Oct ? 05:56:45 10° N 06:00:22 31° WNW 06:02:34 19° WSW visible
